Weather History for Hurlburt Field, FL

Change the Weather History Date:

Sunday, November 4, 2012

  Actual Average Record
Temperature  
Mean Temperature 70 °F -  
Max Temperature 80 °F 72 °F 82 °F (2001)
Min Temperature 59 °F 53 °F 33 °F (1999)
Cooling Degree Days 4    
Growing Degree Days 20 (Base 50)    
Moisture  
Dew Point 64 °F    
Average Humidity 92    
Maximum Humidity 100    
Minimum Humidity 65    
Precipitation  
Precipitation 0.00 in - - ()
Sea Level Pressure  
Sea Level Pressure 30.07 in    
Wind  
Wind Speed 5 mph (WNW)    
Max Wind Speed 14 mph    
Max Gust Speed -    
Visibility 5 miles    
Events Fog    
Averages and records for this station are not official NWS values.
T = Trace of Precipitation, MM = Missing Value Source: NWS Daily Summary

Daily Weather History Graph

Daily Weather History Graph

Search for Another Location

Airport:

Trip Planner

Search our weather history database for the weather conditions in past years. The results will help you decide how hot, cold, wet, or windy it might be!

Date:

Astronomy

Nov. 04, 2012 Rise Set
Actual Time 6:03 AM CST 4:56 PM CST
Civil Twilight 5:38 AM CST 5:21 PM CST
Nautical Twilight 5:10 AM CST 5:49 PM CST
Astronomical Twilight 4:42 AM CST 6:18 PM CST
Moon 9:37 PM CST (11/4) 10:42 AM CST (11/4)
Length of Visible Light 11h 42m
Length of Day
10h 52m
Waning Gibbous, 72% of the Moon is Illuminated
Nov 4
Waning Gibbous
Nov 6
Last Quarter
Nov 13
New
Nov 20
First Quarter
Nov 28
Full

Hourly Weather History & Observations

Time (CST) Temp. Dew Point Humidity Pressure Visibility Wind Dir Wind Speed Gust Speed Precip Events Conditions
12:55 AM 67.1 °F 67.1 °F 100% 30.08 in 10.0 mi WNW 5.8 mph - N/A   Clear
1:55 AM 66.7 °F 66.7 °F 100% 30.08 in 10.0 mi WNW 3.5 mph - N/A   Clear
1:55 AM 66.7 °F 66.7 °F 100% 30.07 in 10.0 mi WNW 5.8 mph - N/A   Clear
2:55 AM 65.7 °F 65.3 °F 99% 30.07 in 10.0 mi NNW 3.5 mph - N/A   Clear
3:37 AM 62.6 °F 62.6 °F 100% 30.06 in 2.5 mi Calm Calm - N/A   Clear
3:42 AM 62.6 °F 62.6 °F 100% 30.06 in 3.0 mi Calm Calm - N/A   Clear
3:55 AM 64.2 °F 64.2 °F 100% 30.06 in 8.0 mi WSW 4.6 mph - N/A   Clear
4:55 AM 65.8 °F 65.8 °F 100% 30.06 in 10.0 mi Calm Calm - N/A   Clear
5:18 AM 66.2 °F 66.2 °F 100% 30.07 in 8.0 mi WNW 4.6 mph - N/A   Partly Cloudy
5:28 AM 62.6 °F 60.8 °F 94% 30.08 in 2.5 mi NW 3.5 mph - N/A   Scattered Clouds
5:30 AM 60.8 °F 60.8 °F 100% 30.08 in 1.8 mi WNW 3.5 mph - N/A   Scattered Clouds
5:31 AM 60.8 °F 60.8 °F 100% 30.08 in 1.5 mi NW 3.5 mph - N/A   Mostly Cloudy
5:33 AM 60.8 °F 60.8 °F 100% 30.08 in 1.2 mi WNW 3.5 mph - N/A   Mostly Cloudy
5:34 AM 60.8 °F 60.8 °F 100% 30.08 in 1.0 mi NW 3.5 mph - N/A   Mist
5:38 AM 60.8 °F 60.8 °F 100% 30.08 in 0.8 mi WNW 4.6 mph - N/A   Mist
5:41 AM 62.6 °F 62.6 °F 100% 30.08 in 0.5 mi WNW 3.5 mph - N/A Fog Fog
5:46 AM 64.4 °F 64.4 °F 100% 30.08 in 0.5 mi West 4.6 mph - N/A Fog Fog
5:47 AM 64.4 °F 64.4 °F 100% 30.08 in 0.5 mi West 4.6 mph - N/A Fog Fog
5:48 AM 64.4 °F 64.4 °F 100% 30.09 in 0.5 mi West 4.6 mph - N/A Fog Fog
5:55 AM 64.9 °F 64.9 °F 100% 30.08 in 0.5 mi West 3.5 mph - N/A Fog Fog
5:56 AM 64.4 °F 64.4 °F 100% 30.08 in 0.5 mi West 3.5 mph - N/A Fog Fog
6:01 AM 64.4 °F 64.4 °F 100% 30.08 in 0.2 mi WNW 3.5 mph - N/A Fog Fog
6:02 AM 64.4 °F 64.4 °F 100% 30.09 in 0.5 mi WNW 3.5 mph - N/A Fog Fog
6:03 AM 64.4 °F 64.4 °F 100% 30.09 in 0.5 mi WNW 3.5 mph - N/A Fog Fog
6:13 AM 64.4 °F 64.4 °F 100% 30.09 in 0.2 mi WNW 4.6 mph - N/A Fog Fog
6:14 AM 64.4 °F 64.4 °F 100% 30.09 in 0.2 mi WNW 4.6 mph - N/A Fog Fog
6:16 AM 64.4 °F 64.4 °F 100% 30.09 in 0.2 mi NW 4.6 mph - N/A Fog Fog
6:21 AM 64.4 °F 64.4 °F 100% 30.09 in 0.2 mi WNW 6.9 mph - N/A Fog Fog
6:30 AM 64.4 °F 64.4 °F 100% 30.09 in 0.2 mi NW 3.5 mph - N/A Fog Fog
6:31 AM 64.4 °F 64.4 °F 100% 30.09 in 0.2 mi NW 3.5 mph - N/A Fog Fog
6:34 AM 64.4 °F 64.4 °F 100% 30.09 in 0.5 mi NW 3.5 mph - N/A Fog Fog
6:52 AM 64.4 °F 64.4 °F 100% 30.10 in 0.8 mi Calm Calm - N/A   Mist
6:54 AM 64.4 °F 64.4 °F 100% 30.10 in 0.8 mi NW 3.5 mph - N/A   Mist
6:55 AM 63.7 °F 63.7 °F 100% 30.10 in 0.8 mi NW 3.5 mph - N/A   Mist
6:58 AM 64.4 °F 64.4 °F 100% 30.10 in 1.0 mi NW 3.5 mph - N/A   Mist
6:59 AM 64.4 °F 64.4 °F 100% 30.10 in 1.2 mi WNW 3.5 mph - N/A   Mostly Cloudy
7:01 AM 64.4 °F 64.4 °F 100% 30.10 in 1.5 mi NW 3.5 mph - N/A   Mostly Cloudy
7:02 AM 64.4 °F 64.4 °F 100% 30.10 in 2.0 mi NW 4.6 mph - N/A   Mostly Cloudy
7:04 AM 64.4 °F 64.4 °F 100% 30.10 in 3.0 mi NW 4.6 mph - N/A   Mostly Cloudy
7:08 AM 64.4 °F 64.4 °F 100% 30.11 in 9.0 mi NNW 4.6 mph - N/A   Mostly Cloudy
7:34 AM 64.4 °F 64.4 °F 100% 30.11 in 3.0 mi Calm Calm - N/A   Scattered Clouds
7:55 AM 66.4 °F 66.2 °F 99% 30.10 in 10.0 mi NW 3.5 mph - N/A   Partly Cloudy
8:55 AM 71.2 °F 68.9 °F 92% 30.09 in 10.0 mi NNW 8.1 mph - N/A   Clear
9:55 AM 76.6 °F 67.6 °F 74% 30.09 in 10.0 mi NW 9.2 mph - N/A   Clear
10:55 AM 79.2 °F 66.4 °F 65% 30.07 in 10.0 mi WNW 6.9 mph - N/A   Clear
11:16 AM 78.8 °F 68.0 °F 69% 30.06 in 10.0 mi WSW 8.1 mph - N/A   Mostly Cloudy
11:43 AM 78.8 °F 68.0 °F 69% 30.05 in 10.0 mi West 8.1 mph - N/A   Mostly Cloudy
11:47 AM 77.0 °F 68.0 °F 74% 30.05 in 10.0 mi WSW 9.2 mph - N/A   Mostly Cloudy
11:55 AM 77.4 °F 68.4 °F 74% 30.04 in 10.0 mi WSW 8.1 mph - N/A   Mostly Cloudy
11:59 AM 78.8 °F 68.0 °F 69% 30.04 in 10.0 mi SW 8.1 mph - N/A   Mostly Cloudy
12:03 PM 78.8 °F 68.0 °F 69% 30.04 in 10.0 mi SW 8.1 mph - N/A   Mostly Cloudy
12:19 PM 75.2 °F 68.0 °F 78% 30.04 in 10.0 mi SSW 11.5 mph - N/A   Scattered Clouds
12:55 PM 77.7 °F 69.3 °F 75% 30.02 in 10.0 mi SW 13.8 mph - N/A   Scattered Clouds
1:55 PM 77.5 °F 69.1 °F 75% 30.01 in 10.0 mi WSW 11.5 mph - N/A   Partly Cloudy
2:55 PM 77.2 °F 68.2 °F 74% 30.01 in 10.0 mi West 10.4 mph - N/A   Scattered Clouds
3:55 PM 73.0 °F 68.9 °F 87% 30.01 in 10.0 mi SW 9.2 mph - N/A   Partly Cloudy
4:55 PM 72.1 °F 66.9 °F 84% 30.00 in 10.0 mi WSW 3.5 mph - N/A   Clear
5:55 PM 71.4 °F 61.0 °F 70% 30.02 in 10.0 mi NNW 6.9 mph - N/A   Clear
6:55 PM 69.1 °F 58.5 °F 69% 30.02 in 10.0 mi WNW 3.5 mph - N/A   Scattered Clouds
7:55 PM 67.3 °F 58.1 °F 72% 30.03 in 10.0 mi NW 4.6 mph - N/A   Mostly Cloudy
8:55 PM 65.3 °F 57.9 °F 77% 30.04 in 10.0 mi NW 4.6 mph - N/A   Clear
9:55 PM 61.9 °F 57.7 °F 86% 30.05 in 10.0 mi NNW 4.6 mph - N/A   Clear
10:55 PM 59.9 °F 57.7 °F 93% 30.05 in 10.0 mi NNW 4.6 mph - N/A   Clear